カタログに戻る

BLOCK DM-SL R/B

運用中GEO
NORAD 55507·ROCKET BODY·🇷🇺 Russia

打ち上げ Feb 5, 2023 から Baikonur Cosmodrome

Loading…

TLE

最新Source: Space-Track

元期: Sep 14, 2026, 04:04 UTC

1 55507U 23016B   26257.16974590 -.00000072  00000-0  00000+0 0  9996
2 55507   2.8598  78.7743 0090756 249.6416 109.8498  1.03219447 13599

AllMySatでBLOCK DM-SL R/Bをリアルタイム追跡

Download on the App Store